DW0108 Weather Reports


Display with metric or nautical units.
time (UTC)temp
F
wind
direction
speed
MPH
gust
MPH
rain 1hr
in
rain 24hr
in
rain mn
in
humidity
%
barometer
mb
20260902223836 99 69 1.0 4.0 0.00 0.00 0.00 38 1011.8
20260902221815 99 64 1.0 2.0 0.00 0.00 0.00 40 1011.8
20260902220815 99 94 1.0 4.0 0.00 0.00 0.00 40 1012.1
20260902215840 99 93 1.0 3.0 0.00 0.00 0.00 41 1012.1
20260902214814 99 62 1.0 3.0 0.00 0.00 0.00 40 1012.1
20260902213811 99 97 1.0 2.0 0.00 0.00 0.00 40 1012.1
20260902212821 99 184 1.0 3.0 0.00 0.00 0.00 39 1012.1
20260902211830 99 92 1.0 4.0 0.00 0.00 0.00 40 1012.1
20260902210805 98 223 1.0 2.0 0.00 0.00 0.00 41 1012.8
20260902204809 98 175 1.0 3.0 0.00 0.00 0.00 42 1012.5
20260902201834 98 147 1.0 3.0 0.00 0.00 0.00 42 1012.8
20260902200833 99 135 1.0 3.0 0.00 0.00 0.00 40 1013.2
20260902195838 99 83 1.0 3.0 0.00 0.00 0.00 40 1013.5
20260902194819 99 115 1.0 3.0 0.00 0.00 0.00 42 1013.5
20260902193804 98 85 1.0 4.0 0.00 0.00 0.00 41 1013.8
20260902192819 98 215 1.0 4.0 0.00 0.00 0.00 42 1014.2
20260902190823 97 75 1.0 3.0 0.00 0.00 0.00 41 1014.2
20260902185806 98 126 1.0 2.0 0.00 0.00 0.00 41 1014.2
20260902184840 96 310 1.0 5.0 0.00 0.00 0.00 43 1014.2
20260902183806 97 152 2.0 4.0 0.00 0.00 0.00 43 1014.5
20260902182826 97 77 1.0 4.0 0.00 0.00 0.00 44 1014.8
20260902181836 96 192 1.0 4.0 0.00 0.00 0.00 44 1014.8
20260902180824 96 95 2.0 4.0 0.00 0.00 0.00 44 1015.2
20260902175807 96 106 2.0 4.0 0.00 0.00 0.00 44 1015.5
20260902174828 96 162 1.0 4.0 0.00 0.00 0.00 46 1015.5
20260902173837 96 147 0.0 1.0 0.00 0.00 0.00 46 1015.9
20260902172827 95 175 1.0 3.0 0.00 0.00 0.00 45 1015.9
20260902171844 95 169 0.0 3.0 0.00 0.00 0.00 46 1016.2
20260902170845 94 246 1.0 2.0 0.00 0.00 0.00 48 1016.2
20260902165833 95 125 1.0 2.0 0.00 0.00 0.00 46 1016.2
20260902164808 94 150 0.0 2.0 0.00 0.00 0.00 47 1016.2
20260902162835 93 200 0.0 2.0 0.00 0.00 0.00 48 1016.2
20260902161823 93 132 0.0 3.0 0.00 0.00 0.00 48 1016.5
20260902155817 91 174 0.0 1.0 0.00 0.00 0.00 54 1016.5
20260902154830 92 82 1.0 2.0 0.00 0.00 0.00 52 1016.5
20260902153826 90 145 0.0 2.0 0.00 0.00 0.00 56 1016.5
20260902152826 89 162 1.0 4.0 0.00 0.00 0.00 59 1016.5
20260902151806 89 114 0.0 2.0 0.00 0.00 0.00 60 1016.5
20260902150808 88 135 0.0 2.0 0.00 0.00 0.00 62 1016.5
20260902145828 88 149 1.0 2.0 0.00 0.00 0.00 62 1016.5
20260902144816 87 152 0.0 2.0 0.00 0.00 0.00 63 1016.5
20260902143845 87 113 0.0 1.0 0.00 0.00 0.00 64 1016.5
20260902142828 86 159 1.0 4.0 0.00 0.00 0.00 66 1016.9
20260902141815 85 202 0.0 2.0 0.00 0.00 0.00 67 1016.5
20260902140841 85 116 0.0 2.0 0.00 0.00 0.00 69 1016.5
20260902135832 84 142 0.0 2.0 0.00 0.00 0.00 70 1016.5
20260902134839 83 148 0.0 2.0 0.00 0.00 0.00 72 1016.5
20260902132828 81 171 0.0 1.0 0.00 0.00 0.00 77 1016.5
20260902131804 80 69 0.0 0.0 0.00 0.00 0.00 78 1016.2
20260902130846 79 98 0.0 1.0 0.00 0.00 0.00 81 1016.2
20260902124816 77 211 0.0 0.0 0.00 0.00 0.00 85 1016.2
20260902123828 77 229 0.0 0.0 0.00 0.00 0.00 85 1015.9
20260902122814 77 60 0.0 0.0 0.00 0.00 0.00 86 1016.2
20260902121832 77 112 0.0 0.0 0.00 0.00 0.00 86 1015.9
20260902120822 76 48 0.0 0.0 0.00 0.00 0.00 86 1015.9
20260902114844 77 210 0.0 1.0 0.00 0.00 0.00 85 1015.9
20260902113818 77 82 0.0 0.0 0.00 0.00 0.00 84 1015.9
20260902111842 77 98 0.0 1.0 0.00 0.00 0.00 84 1015.9
20260902110845 77 81 0.0 1.0 0.00 0.00 0.00 83 1015.9
20260902105810 77 183 0.0 0.0 0.00 0.00 0.00 84 1015.9
20260902103813 78 100 0.0 0.0 0.00 0.00 0.00 83 1015.5
20260902102817 79 89 0.0 0.0 0.00 0.00 0.00 80 1015.9
20260902101829 79 64 0.0 1.0 0.00 0.00 0.00 80 1015.5
20260902100834 79 52 0.0 0.0 0.00 0.00 0.00 80 1015.5
20260902095816 79 89 0.0 0.0 0.00 0.00 0.00 79 1015.5
20260902093824 79 86 0.0 1.0 0.00 0.00 0.00 78 1015.5
20260902092820 80 76 0.0 1.0 0.00 0.00 0.00 77 1015.9
20260902091826 81 203 0.0 0.0 0.00 0.00 0.00 77 1015.9
20260902084823 81 41 0.0 0.0 0.00 0.00 0.00 74 1015.9
20260902083818 82 14 0.0 0.0 0.00 0.00 0.00 73 1015.9
20260902081845 82 89 0.0 1.0 0.00 0.00 0.00 71 1015.9
20260902080805 83 136 0.0 1.0 0.00 0.00 0.00 69 1015.9
20260902074847 84 109 0.0 2.0 0.00 0.00 0.00 67 1015.9
20260902073804 84 152 1.0 2.0 0.00 0.00 0.00 67 1015.9
20260902072834 84 155 1.0 2.0 0.00 0.00 0.00 66 1016.2
20260902070805 84 155 1.0 3.0 0.00 0.00 0.00 66 1015.9
20260902065814 85 138 1.0 3.0 0.00 0.00 0.00 66 1016.2
20260902064832 85 155 1.0 3.0 0.00 0.00 0.00 65 1016.2
20260902062818 85 179 1.0 2.0 0.00 0.00 0.00 64 1015.9
20260902061835 86 156 1.0 4.0 0.00 0.00 0.00 62 1015.9
20260902060827 86 169 2.0 4.0 0.00 0.00 0.00 62 1015.9
20260902055836 86 166 2.0 3.0 0.00 0.00 0.00 61 1015.9
20260902054815 86 173 2.0 4.0 0.00 0.00 0.00 60 1015.5
20260902053837 87 159 2.0 4.0 0.00 0.00 0.00 60 1015.5
20260902052843 87 170 2.0 3.0 0.00 0.00 0.00 59 1015.2
20260902051834 87 170 1.0 5.0 0.00 0.00 0.00 59 1015.5
20260902050811 88 174 1.0 3.0 0.00 0.00 0.00 58 1015.2
20260902045826 88 164 1.0 6.0 0.00 0.00 0.00 57 1015.5
20260902044842 88 113 1.0 3.0 0.00 0.00 0.00 56 1015.2
20260902043845 87 117 0.0 1.0 0.00 0.00 0.00 58 1015.2
20260902042807 88 96 0.0 1.0 0.00 0.00 0.00 56 1014.8
20260902041839 89 146 0.0 1.0 0.00 0.00 0.00 54 1014.8
20260902040832 89 138 0.0 1.0 0.00 0.00 0.00 54 1015.2
20260902035846 90 123 0.0 2.0 0.00 0.00 0.00 53 1015.2
20260902034810 90 146 0.0 2.0 0.00 0.00 0.00 52 1014.8
20260902032849 91 156 0.0 2.0 0.00 0.00 0.00 50 1014.8
20260902031835 91 163 0.0 1.0 0.00 0.00 0.00 51 1014.8
20260902025804 91 104 0.0 0.0 0.00 0.00 0.00 50 1014.5
20260902024817 91 160 0.0 0.0 0.00 0.00 0.00 50 1014.2
20260902023823 91 121 0.0 1.0 0.00 0.00 0.00 49 1014.2
20260902022807 92 152 0.0 1.0 0.00 0.00 0.00 48 1014.2
20260902021826 92 100 0.0 1.0 0.00 0.00 0.00 49 1013.8
20260902014805 93 138 0.0 1.0 0.00 0.00 0.00 47 1013.5
20260902013829 93 134 0.0 2.0 0.00 0.00 0.00 47 1013.5
20260902012847 93 132 0.0 2.0 0.00 0.00 0.00 47 1013.8
20260902011804 94 109 0.0 1.0 0.00 0.00 0.00 46 1013.5
20260902010828 94 115 0.0 2.0 0.00 0.00 0.00 45 1013.5
20260902005839 94 136 0.0 1.0 0.00 0.00 0.00 45 1013.2
20260902004813 95 126 0.0 2.0 0.00 0.00 0.00 44 1013.2
20260902003810 95 172 0.0 2.0 0.00 0.00 0.00 44 1013.5
20260902001816 97 180 1.0 3.0 0.00 0.00 0.00 42 1013.2
20260902000823 97 128 0.0 1.0 0.00 0.00 0.00 42 1013.5
20260901235829 97 93 0.0 2.0 0.00 0.00 0.00 42 1013.5
20260901234844 97 136 0.0 2.0 0.00 0.00 0.00 41 1013.5
20260901233840 97 181 0.0 3.0 0.00 0.00 0.00 40 1013.5
20260901232828 98 137 1.0 3.0 0.00 0.00 0.00 41 1013.8
20260901231815 98 123 1.0 4.0 0.00 0.00 0.00 40 1013.5
20260901230804 99 156 1.0 3.0 0.00 0.00 0.00 39 1013.5
20260901225815 99 162 1.0 4.0 0.00 0.00 0.00 39 1013.5
20260901224846 99 155 1.0 3.0 0.00 0.00 0.00 39 1013.5